Location: Home
(42.5358°N, 72.7383°W)
Time: 05:24:10
(UTC-05:00)

Transit 4A - Pass Details

Date: 07 December 2021
Orbit: 863 x 981 km, 66.8° (Epoch: 25 January)

Event Time Altitude Azimuth Distance (km) Brightness Sun altitude
Rises 18:56:51 0° 228° (SW) 3,453 11.6 -28.5°
Reaches altitude 10° 18:59:24 10° 235° (SW) 2,530 10.9 -29.0°
Maximum altitude 19:05:01 46° 308° (NW) 1,187 8.6 -30.0°
Enters shadow 19:06:36 38° 348° (NNW) 1,354 8.7 -30.3°
